This is the latest recevied weather packets stored in our database for station/object KK7KHO. If no packets are shown the sender has not sent any weather packets the latest 10 day(s).
| Time | Temp. | Humidity | Pressure | Rain* | Wind** | Luminosity | Snow |
|---|---|---|---|---|---|---|---|
| 1777779890 | 16.67° C | 74% | 1012.7 hPa | 0 mm | - | 0 W/m² | - |
| 1777779587 | 16.67° C | 74% | 1012.7 hPa | 0 mm | - | 1 W/m² | - |
| 1777779284 | 16.67° C | 74% | 1012.5 hPa | 0 mm | - | 1 W/m² | - |
| 1777778982 | 16.67° C | 74% | 1012.6 hPa | 0 mm | - | 2 W/m² | - |
| 1777778681 | 17.22° C | 74% | 1012.4 hPa | 0 mm | - | 3 W/m² | - |
| 1777778378 | 17.22° C | 73% | 1012.5 hPa | 0 mm | - | 5 W/m² | - |
| 1777778076 | 17.22° C | 72% | 1012.3 hPa | 0 mm | - | 7 W/m² | - |
| 1777777772 | 17.78° C | 71% | 1012.4 hPa | 0 mm | - | 10 W/m² | - |
| 1777777468 | 17.78° C | 70% | 1012.4 hPa | 0 mm | - | 12 W/m² | - |
| 1777777165 | 17.78° C | 68% | 1012.3 hPa | 0 mm | - | 15 W/m² | - |
| 1777776862 | 18.33° C | 67% | 1012.2 hPa | 0 mm | - | 18 W/m² | - |
| 1777776560 | 18.33° C | 68% | 1012.3 hPa | 0 mm | - | 21 W/m² | - |
| 1777776256 | 18.89° C | 69% | 1012.2 hPa | 0 mm | - | 24 W/m² | - |
| 1777775954 | 19.44° C | 66% | 1012.2 hPa | 0 mm | - | 26 W/m² | - |
| 1777775650 | 19.44° C | 65% | 1012.2 hPa | 0 mm | - | 29 W/m² | - |
| 1777775348 | 20° C | 61% | 1012.3 hPa | 0 mm | - | 31 W/m² | - |
| 1777775043 | 20° C | 62% | 1012.2 hPa | 0 mm | - | 33 W/m² | - |
| 1777774739 | 20.56° C | 59% | 1012 hPa | 0 mm | - | 39 W/m² | - |
| 1777774435 | 21.11° C | 55% | 1012.2 hPa | 0 mm | - | 61 W/m² | - |
| 1777774132 | 21.11° C | 55% | 1012.4 hPa | 0 mm | - | 69 W/m² | - |
| 1777773830 | 21.67° C | 54% | 1012.4 hPa | 0 mm | - | 77 W/m² | - |
| 1777773526 | 21.11° C | 54% | 1012.2 hPa | 0 mm | - | 86 W/m² | - |
| 1777773223 | 21.11° C | 54% | 1012.5 hPa | 0 mm | - | 95 W/m² | - |
| 1777772919 | 21.67° C | 53% | 1012.3 hPa | 0 mm | - | 104 W/m² | - |
| 1777772617 | 21.67° C | 53% | 1012.5 hPa | 0 mm | - | 114 W/m² | - |
* Rain latest hour (hover to see other rain measurements)
** Current wind speed in m/s (hover to see current wind gust speed)